• In Russia
  • List of Countries
  • For 7 days
  • Water Temperature
  • Satellite Maps
  • Weather Map
  • Weather Widgets
  • user-avatar
    Login

    Hourly Weather Sharalday

    Today, 15 November, Thursday

    Time Temperature Precipitation Wind Pressure Humidity
    00:00 -13°C° 0 mm 1 mps 710 mmHg 58%
    01:00 -15°C° 0 mm 2 mps 710 mmHg 59%
    02:00 -15°C° 0 mm 2 mps 709 mmHg 61%
    03:00 -15°C° 0 mm 2 mps 709 mmHg 62%
    04:00 -16°C° 0 mm 2 mps 709 mmHg 64%
    05:00 -16°C° 0 mm 2 mps 709 mmHg 65%
    06:00 -16°C° 0 mm 2 mps 709 mmHg 66%
    07:00 -16°C° 0 mm 2 mps 709 mmHg 71%
    08:00 -15°C° 0 mm 2 mps 708 mmHg 66%
    09:00 -14°C° 0 mm 2 mps 708 mmHg 60%
    10:00 -12°C° 0 mm 2 mps 708 mmHg 54%
    11:00 -12°C° 0 mm 3 mps 707 mmHg 51%
    12:00 -10°C° 0 mm 3 mps 707 mmHg 47%
    13:00 -9°C° 0 mm 3 mps 707 mmHg 44%
    14:00 -10°C° 0 mm 3 mps 706 mmHg 48%
    15:00 -12°C° 0 mm 3 mps 706 mmHg 52%
    16:00 -12°C° 0 mm 2 mps 706 mmHg 56%
    17:00 -12°C° 0 mm 2 mps 705 mmHg 58%
    18:00 -12°C° 0 mm 2 mps 705 mmHg 59%
    19:00 -14°C° 0 mm 3 mps 705 mmHg 58%
    20:00 -14°C° 0 mm 3 mps 704 mmHg 58%
    21:00 -13°C° 0 mm 2 mps 704 mmHg 58%
    22:00 -13°C° 0 mm 2 mps 704 mmHg 58%
    23:00 -13°C° 0 mm 2 mps 703 mmHg 59%

    Tomorrow, 16 November, Friday

    Time Temperature Precipitation Wind Pressure Humidity
    00:00 -13°C° 0 mm 2 mps 703 mmHg 60%
    01:00 -13°C° 0 mm 2 mps 703 mmHg 61%
    02:00 -13°C° 0 mm 2 mps 703 mmHg 63%
    03:00 -11°C° 0 mm 1 mps 702 mmHg 64%
    04:00 -11°C° 0 mm 1 mps 702 mmHg 65%
    05:00 -11°C° 0 mm 1 mps 702 mmHg 66%
    06:00 -11°C° 0 mm 1 mps 702 mmHg 68%
    07:00 -13°C° 0 mm 2 mps 703 mmHg 69%
    08:00 -12°C° 0 mm 2 mps 703 mmHg 64%
    09:00 -9°C° 0 mm 2 mps 703 mmHg 59%
    10:00 -8°C° 0 mm 2 mps 703 mmHg 55%
    11:00 -7°C° 0 mm 2 mps 702 mmHg 53%
    12:00 -6°C° 0 mm 2 mps 702 mmHg 52%
    13:00 -5°C° 0 mm 2 mps 702 mmHg 50%
    14:00 -6°C° 0 mm 2 mps 701 mmHg 55%
    15:00 -7°C° 0 mm 2 mps 701 mmHg 59%
    16:00 -8°C° 0 mm 1 mps 701 mmHg 64%
    17:00 -8°C° 0 mm 1 mps 701 mmHg 65%
    18:00 -8°C° 0 mm 1 mps 701 mmHg 66%
    19:00 -8°C° 0 mm 1 mps 701 mmHg 67%
    20:00 -8°C° 0 mm 1 mps 701 mmHg 69%
    21:00 -9°C° 0 mm 1 mps 701 mmHg 70%
    22:00 -9°C° 0 mm 1 mps 701 mmHg 72%
    23:00 -9°C° 0.1 mm 1 mps 701 mmHg 74%

    Day after tomorrow, 17 November, Saturday

    Time Temperature Precipitation Wind Pressure Humidity
    00:00 -9°C° 0.1 mm 1 mps 701 mmHg 76%
    01:00 -9°C° 0.1 mm 1 mps 701 mmHg 78%
    02:00 -9°C° 0.2 mm 1 mps 701 mmHg 83%
    03:00 -9°C° 0.2 mm 1 mps 702 mmHg 87%
    04:00 -9°C° 0.2 mm 2 mps 702 mmHg 91%
    05:00 -10°C° 0.1 mm 2 mps 702 mmHg 89%
    06:00 -12°C° 0.1 mm 3 mps 703 mmHg 86%
    07:00 -13°C° 0.1 mm 3 mps 703 mmHg 84%
    08:00 -14°C° 0 mm 4 mps 704 mmHg 77%
    09:00 -14°C° 0 mm 4 mps 704 mmHg 69%
    10:00 -14°C° 0 mm 5 mps 705 mmHg 62%
    11:00 -14°C° 0 mm 5 mps 705 mmHg 59%
    12:00 -14°C° 0 mm 5 mps 705 mmHg 57%
    13:00 -14°C° 0 mm 5 mps 705 mmHg 54%
    14:00 -15°C° 0 mm 4 mps 705 mmHg 57%
    15:00 -16°C° 0 mm 4 mps 705 mmHg 61%
    16:00 -15°C° 0 mm 3 mps 705 mmHg 64%
    17:00 -16°C° 0 mm 3 mps 705 mmHg 68%
    18:00 -15°C° 0 mm 2 mps 706 mmHg 71%
    19:00 -16°C° 0 mm 2 mps 706 mmHg 74%
    20:00 -16°C° 0 mm 2 mps 706 mmHg 76%
    21:00 -17°C° 0 mm 2 mps 706 mmHg 78%
    22:00 -17°C° 0 mm 2 mps 706 mmHg 79%
    23:00 -15°C° 0 mm 1 mps 706 mmHg 81%

    18 November, Sunday

    Time Temperature Precipitation Wind Pressure Humidity
    00:00 -15°C° 0 mm 1 mps 705 mmHg 83%
    01:00 -16°C° 0 mm 1 mps 705 mmHg 84%
    02:00 -16°C° 0 mm 1 mps 705 mmHg 86%
    03:00 -16°C° 0 mm 1 mps 705 mmHg 87%
    04:00 -16°C° 0 mm 1 mps 704 mmHg 88%
    05:00 -16°C° 0 mm 1 mps 704 mmHg 88%
    06:00 -16°C° 0 mm 1 mps 704 mmHg 89%
    07:00 -17°C° 0 mm 1 mps 704 mmHg 89%
    08:00 -15°C° 0 mm 1 mps 704 mmHg 82%
    09:00 -14°C° 0 mm 1 mps 704 mmHg 75%
    10:00 -13°C° 0 mm 1 mps 704 mmHg 68%
    11:00 -12°C° 0 mm 1 mps 703 mmHg 65%
    12:00 -12°C° 0 mm 1 mps 703 mmHg 61%
    13:00 -13°C° 0 mm 2 mps 702 mmHg 58%
    14:00 -12°C° 0 mm 1 mps 702 mmHg 64%
    15:00 -13°C° 0 mm 1 mps 702 mmHg 71%
    16:00 -14°C° 0 mm 1 mps 702 mmHg 77%
    17:00 -14°C° 0 mm 1 mps 702 mmHg 80%
    18:00 -15°C° 0 mm 1 mps 702 mmHg 82%
    19:00 -15°C° 0 mm 0 mps 702 mmHg 85%
    20:00 -16°C° 0 mm 0 mps 702 mmHg 86%
    21:00 -16°C° 0 mm 0 mps 702 mmHg 87%
    22:00 -16°C° 0 mm 1 mps 703 mmHg 87%
    23:00 -16°C° 0 mm 1 mps 703 mmHg 88%

    19 November, Monday

    Time Temperature Precipitation Wind Pressure Humidity
    00:00 -16°C° 0 mm 1 mps 703 mmHg 88%
    01:00 -16°C° 0 mm 1 mps 703 mmHg 89%
    02:00 -17°C° 0 mm 1 mps 703 mmHg 89%
    03:00 -17°C° 0 mm 1 mps 703 mmHg 89%
    04:00 -17°C° 0 mm 1 mps 703 mmHg 89%
    05:00 -17°C° 0 mm 1 mps 703 mmHg 89%
    06:00 -17°C° 0 mm 1 mps 703 mmHg 90%
    07:00 -17°C° 0 mm 1 mps 703 mmHg 90%
    08:00 -16°C° 0 mm 1 mps 704 mmHg 83%
    09:00 -14°C° 0 mm 1 mps 704 mmHg 76%
    10:00 -15°C° 0 mm 2 mps 704 mmHg 69%
    11:00 -14°C° 0 mm 2 mps 704 mmHg 66%
    12:00 -14°C° 0 mm 3 mps 704 mmHg 63%
    13:00 -14°C° 0 mm 3 mps 704 mmHg 59%
    14:00 -14°C° 0 mm 3 mps 704 mmHg 65%
    15:00 -14°C° 0 mm 2 mps 704 mmHg 70%
    16:00 -15°C° 0 mm 2 mps 704 mmHg 76%
    17:00 -16°C° 0 mm 2 mps 704 mmHg 78%
    18:00 -14°C° 0 mm 1 mps 705 mmHg 80%
    19:00 -15°C° 0 mm 1 mps 705 mmHg 82%
    20:00 -15°C° 0 mm 1 mps 705 mmHg 82%
    21:00 -17°C° 0 mm 2 mps 705 mmHg 82%
    22:00 -17°C° 0 mm 2 mps 705 mmHg 83%
    23:00 -18°C° 0 mm 2 mps 705 mmHg 84%

    20 November, Tuesday

    Time Temperature Precipitation Wind Pressure Humidity
    00:00 -18°C° 0 mm 2 mps 705 mmHg 85%
    01:00 -18°C° 0 mm 2 mps 704 mmHg 85%
    02:00 -18°C° 0 mm 2 mps 704 mmHg 86%
    03:00 -18°C° 0 mm 2 mps 704 mmHg 87%
    04:00 -18°C° 0 mm 2 mps 704 mmHg 87%
    05:00 -18°C° 0 mm 2 mps 704 mmHg 87%
    06:00 -18°C° 0 mm 2 mps 704 mmHg 86%
    07:00 -18°C° 0 mm 2 mps 703 mmHg 85%
    08:00 -16°C° 0 mm 2 mps 703 mmHg 77%
    09:00 -15°C° 0 mm 2 mps 703 mmHg 68%
    10:00 -13°C° 0 mm 2 mps 703 mmHg 60%
    11:00 -13°C° 0 mm 3 mps 702 mmHg 58%
    12:00 -13°C° 0 mm 3 mps 701 mmHg 55%
    13:00 -12°C° 0 mm 3 mps 701 mmHg 53%
    14:00 -13°C° 0 mm 3 mps 700 mmHg 60%
    15:00 -13°C° 0 mm 2 mps 700 mmHg 67%
    16:00 -14°C° 0 mm 2 mps 700 mmHg 73%
    17:00 -12°C° 0 mm 1 mps 700 mmHg 76%
    18:00 -13°C° 0 mm 1 mps 699 mmHg 79%
    19:00 -13°C° 0 mm 1 mps 699 mmHg 82%
    20:00 -13°C° 0 mm 1 mps 699 mmHg 82%
    21:00 -13°C° 0 mm 1 mps 699 mmHg 82%
    22:00 -14°C° 0 mm 1 mps 698 mmHg 82%
    23:00 -14°C° 0 mm 1 mps 698 mmHg 82%
    Show more